Notices

What's New in latest Release from April 7th, 2021:

- Updated Glossary, including Speed of Maximum Gust, and Total Hourly Precipitation

- Updated national and regional climate services offices contacts and prices information

- Addition of station inventory lists for 1981-2010, 1971-2000, and 1961-1990 Normals.

If you haven't already, please take our survey and provide feedback about our website: https://eccc.sondage-survey.ca/f/LanguageSelection.aspx?s=442ca660-fcf1-47c0-95a9-59707d6fd709

Hourly Data Report for March 13, 2004

SHERBROOKE A
QUEBEC

45°26'00.000" N
71°41'00.000" W
241.40 m
7028124
71610
YSC

Download Data

Hourly Data (March 2004)
Hourly Data Report for March 13, 2004
TIME
LST
Temp Definition
°C
Dew Point Definition
°C
Rel Hum Definition
%
Precip. Amount Definition
mm

Wind Dir Definition
10's deg

Wind Spd Definition
km/h
Visibility Definition
km
Stn Press Definition
kPa
Hmdx Definition


Wind Chill Definition


Weather Definition


00:00 -2.8 -8.1 67   26 26 1.6 97.82   -10 Snow
01:00 -3.7 -9.5 64   25 24 4.8 97.93   -11 Snow
02:00 -4.7 -10.4 64   26 24 2.3 98.02   -12 Snow
03:00 -6.1 -12.6 60   25 26 4.0 98.15   -14 Snow
04:00 -7.1 -12.9 63   26 32 1.8 98.27   -16 Snow
05:00 -7.7 -14.3 59   27 26 6.4 98.40   -16 Snow
06:00 -8.4 -14.5 61   26 20 1.8 98.53   -16 Snow
07:00 -8.9 -14.5 64   28 26 1.0 98.64   -18 Snow
08:00 -9.4 -15.6 61   27 26 2.4 98.74   -18 Snow
09:00 -9.2 -15.5 60   27 28 3.2 98.81   -18 Snow
10:00 -8.5 -15.0 59   27 22 4.8 98.90   -16 Snow
11:00 -8.4 -15.2 58   27 28 4.8 98.98   -17 Snow
12:00 -8.1 -15.6 55   27 26 8.0 99.06   -16 Snow Showers,Blowing Snow
13:00 -8.1 -15.2 57   28 30 4.8 99.10   -17 Snow Showers,Blowing Snow
14:00 -8.1 -14.9 58   27 32 4.8 99.18   -17 Snow Showers,Blowing Snow
15:00 -7.8 -15.7 53   27 22 19.3 99.26   -15 Snow Showers
16:00 -7.1 -15.6 51   27 32 24.1 99.30   -16 Snow Showers
17:00 -6.4 -16.3 45   27 24 24.1 99.39   -14 Mainly Clear
18:00 -7.0 -16.7 46   27 15 15.0 99.48   -13  
19:00 -7.8 -16.9 48   26 15 15.0 99.54   -14  
20:00 -8.3 -17.2 49   27 17 15.0 99.65   -15  
21:00 -10.1 -18.3 51   28 13 15.0 99.73   -16  
22:00 -8.9 -18.4 46   28 19 15.0 99.77   -16  
23:00 -9.8 -19.2 46   28 15 15.0 99.86   -16  

Notes on Data Quality.

Legend

  • E = Estimated
  • M = Missing
  • NA = Not Available*
  • [empty] = Indicates an unobserved value
Date modified: